Location: *
(43.9900°N, 3.4811°E)
Time: 03:52:09
(UTC+00:00)

Resurs 01 Rocket - Pass Details

Date: 25 August 2019
Orbit: 635 x 643 km, 98.0° (Epoch: 21 September)

Event Time Altitude Azimuth Distance (km) Brightness Sun altitude
Exits shadow 19:23:25 11° 131° (SE) 1,982 3.5 -9.0°
Maximum altitude 19:27:14 32° 68° (ENE) 1,087 2.5 -9.7°
Drops below altitude 10° 19:31:10 10° 6° (N) 2,033 4.5 -10.3°
Sets 19:33:33 0° 356° (N) 2,947 5.5 -10.7°
